VK1ET-13 Weather Reports


time (UTC)temp
F
wind
direction
speed
knots
gust
knots
rain 1hr
in
rain 24hr
in
rain mn
in
humidity
%
barometer
mb
20260507040519 51 243 6.1 12.2 0.00 0.00 0.00 50 1015.1
20260507035534 52 236 6.1 13.0 0.00 0.00 0.00 49 1015.1
20260507034543 51 249 6.1 13.9 0.00 0.00 0.00 49 1015.0
20260507033526 51 237 6.1 11.3 0.00 0.00 0.00 50 1015.1
20260507032534 51 239 5.2 13.0 0.00 0.00 0.00 52 1015.0
20260507031523 52 236 5.2 8.7 0.00 0.00 0.00 51 1014.9
20260507030540 52 225 6.1 10.4 0.00 0.00 0.00 51 1014.8
20260507025522 52 262 4.3 11.3 0.00 0.00 0.00 51 1015.0
20260507024532 51 238 5.2 10.4 0.00 0.00 0.00 51 1014.8
20260507023520 50 211 7.0 13.0 0.00 0.00 0.00 50 1014.8
20260507022531 51 202 7.0 12.2 0.00 0.00 0.00 51 1014.9
20260507021520 51 225 5.2 8.7 0.00 0.00 0.00 51 1014.9
20260507020531 50 226 5.2 10.4 0.00 0.00 0.00 52 1015.0
20260507015518 51 265 7.0 13.0 0.00 0.00 0.00 51 1015.1
20260507014528 50 240 5.2 8.7 0.00 0.00 0.00 52 1015.2
20260507013537 50 227 5.2 11.3 0.00 0.00 0.00 51 1015.4
20260507012525 50 229 3.5 7.0 0.00 0.00 0.00 52 1015.3
20260507011535 50 248 3.5 9.6 0.00 0.00 0.00 53 1015.4
20260507010523 51 228 5.2 8.7 0.00 0.00 0.00 51 1015.5
20260507005533 51 271 5.2 10.4 0.00 0.00 0.00 52 1015.3
20260507004522 50 259 4.3 10.4 0.00 0.00 0.00 52 1015.1
20260507003531 50 235 7.0 16.5 0.00 0.00 0.00 52 1015.0
20260507002522 50 251 5.2 10.4 0.00 0.00 0.00 52 1015.0
20260507001529 49 261 4.3 13.9 0.00 0.00 0.00 53 1014.9
20260507000518 49 241 6.1 12.2 0.00 0.00 0.00 53 1015.2
20260506235528 50 206 4.3 8.7 0.00 0.00 0.00 54 1015.1
20260506234517 49 236 7.0 13.9 0.00 0.00 0.00 54 1014.8
20260506233527 49 264 6.1 11.3 0.00 0.00 0.00 55 1014.5
20260506232537 48 264 5.2 11.3 0.00 0.00 0.00 56 1014.8
20260506231524 48 266 5.2 11.3 0.00 0.00 0.00 57 1014.9
20260506230533 48 266 5.2 12.2 0.00 0.00 0.00 58 1014.8
20260506225529 48 246 5.2 9.6 0.00 0.00 0.00 58 1014.7
20260506224532 48 265 7.0 13.9 0.00 0.00 0.00 59 1014.8
20260506223521 48 247 6.1 13.0 0.00 0.00 0.00 59 1014.7
20260506222602 48 270 4.3 9.6 0.00 0.00 0.00 58 1014.4
20260506221518 48 269 5.2 11.3 0.00 0.00 0.00 59 1014.2
20260506220527 48 268 5.2 11.3 0.00 0.00 0.00 58 1013.9
20260506215543 48 271 6.1 11.3 0.00 0.00 0.00 58 1013.5
20260506214524 48 274 4.3 7.0 0.00 0.00 0.00 60 1013.5